COSMOS 2251 DEB, 35646

Orbit data source: Space-Track

COSMOS 2251 DEB, 35646 is space debris in LEO originally from a launch on Wed, 16 Jun 1993 UTC launched from the Plesetsk Missile And Space Complex (PKMTR). The debris from Iridium 33, an American commercial communications satellite, has been tracked extensively since its accidental collision with the defunct Russian satellite Cosmos 2251 in 2009. This event, occurring at high speed in low Earth orbit (LEO), generated thousands of pieces of space debris, significantly increasing the risk of further collisions. The Iridium 33 debris cloud has impacted space traffic management and orbital debris mitigation strategies, making it a subject of ongoing study in space situational awareness.

Loading next visibility...
Identifier
35646, 1993-036ANM
Orbit
LEO
Country
Flag of CISCIS
Related business
Manufacturer
Unknown
Mission
Spacecraft
Bus & Motor
Unknown
Mass
Unknown
Launch date (UTC)
1993-06-16 (33 years ago)
Launch vehicle
Unknown
Launch site
Plesetsk Missile And Space Complex (PKMTR)
Object type
Payload
Rocket body
Debris
Shape & HBR
Unknown shape, 0.1 m
Radar Cross Section
Small (<0.1 m²)

Expand to show TLE details & history
Last TLE update: 16 hours ago

TLE from 16 hours ago
0 COSMOS 2251 DEB
1 35646U 93036ANM 25354.88976977  .00000324  00000-0  33731-3 0  9994
2 35646  73.8716  43.0968 0456194 151.9118  23.6706 13.40831039819670
Epoch: 2025-12-20T21:21Z
TLE epoch observation values (Epoch: 2025-12-20T21:21:16.108Z)
Latitude
2.02197°
Longitude
172.48778°
Altitude
798.354 km
Speed
7.607 km/s
True Right ascension
14h 50m 03s
True Declination
2° 00' 36"
Sunlit
Object was in daylight at epoch
Visualization orbit readout
Latitude
Unknown
Longitude
Unknown
Altitude
Unknown
Speed
Unknown
Apparent Right ascension
Unknown
Apparent Declination
Unknown
Sunlit
N/A
Visualization observer readout
Local Sidereal Time
12:50:36
Azimuth
Unknown
Elevation
Unknown
Doppler factor
Unknown
Orbital elements
Apogee altitude
1,445.249 km
Perigee altitude
762.595 km
Semi-major axis
7,482.059 km
Eccentricity
0.04562
Inclination
73.8716°
RAAN
43.0968°
Arg. of periapsis
151.9118°
True anomaly
25.88419°
Mean anomaly
23.6706°
Eccentric anomaly
24.76554°
Mean motion
3.3536 °/min
Orbital period
107.35 mins
BSTAR
0.00033731
Loading maneuver chart data...
Computing Atmospheric mass density...
Loading historical data...
Loading historical data...
Loading historical data...
Loading historical data...
Loading historical data...
Loading historical data...
Loading historical data...

Documentation

Showing up to 5 results
|